Location: Les Salelles
(44.4192°N, 4.1044°E)
Time: 19:45:48
(UTC+00:00)

Cosmos 1777 Rocket - Pass Details

Date: 20 January 2021
Orbit: 758 x 776 km, 74.0° (Epoch: 28 February)

Event Time Altitude Azimuth Distance (km) Brightness Sun altitude
Rises 17:11:20 0° 182° (S) 3,220 7.6 -6.5°
Reaches altitude 10° 17:13:45 10° 177° (S) 2,302 6.7 -6.9°
Maximum altitude 17:18:45 48° 104° (ESE) 1,006 4.3 -7.7°
Drops below altitude 10° 17:23:49 10° 32° (NNE) 2,328 6.0 -8.5°
Enters shadow 17:25:56 - 27° (NNE) 3,131 6.7 -8.9°
